N9WFD Weather Reports


Display with metric or nautical units.
time (UTC)temp
F
wind
direction
speed
MPH
gust
MPH
rain 1hr
in
rain 24hr
in
rain mn
in
humidity
%
barometer
mb
20260902163026 87 321 4.0 8.0 0.00 0.01 0.00 64 1011.9
20260902161553 87 310 4.0 8.0 0.00 0.01 0.00 66 1012.1
20260902160054 86 35 2.0 9.0 0.00 0.01 0.00 66 1012.1
20260902154553 85 341 3.0 9.0 0.00 0.01 0.00 68 1012.2
20260902153043 84 320 4.0 9.0 0.00 0.01 0.00 70 1012.3
20260902151540 83 341 4.0 8.0 0.00 0.01 0.00 70 1012.0
20260902150036 82 343 2.0 5.0 0.00 0.01 0.00 73 1012.3
20260902144530 82 337 4.0 8.0 0.00 0.01 0.00 74 1012.6
20260902143028 81 32 1.0 8.0 0.00 0.01 0.00 76 1012.8
20260902141533 80 34 1.0 3.0 0.00 0.01 0.00 77 1012.7
20260902140021 79 347 2.0 4.0 0.00 0.01 0.00 78 1012.9
20260902134521 79 70 0.0 5.0 0.00 0.01 0.00 77 1013.1
20260902133016 79 77 2.0 6.0 0.00 0.01 0.01 78 1013.2
20260902131514 78 50 1.0 6.0 0.00 0.01 0.01 79 1013.1
20260902130028 78 47 3.0 10.0 0.00 0.01 0.01 79 1013.4
20260902124544 77 60 5.0 10.0 0.00 0.01 0.01 82 1013.5
20260902123043 77 315 2.0 7.0 0.00 0.01 0.01 82 1012.5
20260902121545 76 313 3.0 6.0 0.00 0.01 0.01 82 1012.5
20260902120038 76 314 1.0 5.0 0.00 0.01 0.01 83 1012.4
20260902114544 76 327 2.0 4.0 0.00 0.01 0.01 83 1012.4
20260902113037 76 310 1.0 5.0 0.00 0.01 0.01 83 1012.1
20260902111540 76 310 2.0 5.0 0.01 0.01 0.01 84 1012.2
20260902110043 75 296 2.0 5.0 0.01 0.01 0.01 85 1012.1
20260902104539 75 298 2.0 4.0 0.01 0.01 0.01 86 1012.3
20260902103037 75 315 1.0 4.0 0.01 0.01 0.01 86 1012.4
20260902101530 75 295 1.0 4.0 0.00 0.00 0.00 87 1012.4
20260902100029 75 293 0.0 2.0 0.00 0.00 0.00 87 1012.4
20260902094529 75 288 0.0 3.0 0.00 0.00 0.00 87 1012.5
20260902093036 75 306 0.0 2.0 0.00 0.00 0.00 87 1012.5
20260902091528 75 308 0.0 0.0 0.00 0.00 0.00 88 1012.5
20260902090026 75 308 0.0 0.0 0.00 0.00 0.00 88 1012.4
20260902084526 75 308 0.0 0.0 0.00 0.00 0.00 87 1012.3
20260902083033 75 308 0.0 0.0 0.00 0.00 0.00 87 1012.2
20260902081532 76 308 0.0 0.0 0.00 0.00 0.00 86 1012.0
20260902080024 76 308 0.0 0.0 0.00 0.00 0.00 85 1012.2
20260902074515 77 308 0.0 0.0 0.00 0.00 0.00 84 1012.2
20260902073025 77 308 0.0 2.0 0.00 0.00 0.00 84 1012.2
20260902071516 78 308 0.0 0.0 0.00 0.00 0.00 83 1012.1
20260902070012 78 308 0.0 1.0 0.00 0.00 0.00 83 1012.0
20260902064509 78 308 0.0 2.0 0.00 0.00 0.00 82 1012.1
20260902063015 79 308 1.0 4.0 0.00 0.00 0.00 82 1012.2
20260902061511 79 306 2.0 4.0 0.00 0.00 0.00 82 1012.3
20260902060038 79 293 1.0 5.0 0.00 0.00 0.00 81 1012.2
20260902054538 80 302 2.0 4.0 0.00 0.00 0.00 81 1012.1
20260902053037 80 314 1.0 5.0 0.00 0.00 0.00 81 1012.0
20260902051534 80 303 2.0 4.0 0.00 0.00 0.00 81 1012.1
20260902050033 80 315 1.0 5.0 0.00 0.00 0.00 81 1012.0
20260902044533 80 308 3.0 6.0 0.00 0.00 0.00 81 1012.0
20260902043036 80 303 2.0 5.0 0.00 0.00 0.00 82 1012.0
20260902041530 80 320 3.0 7.0 0.00 0.00 0.00 83 1011.9
20260902040028 81 312 3.0 5.0 0.00 0.00 0.00 82 1012.0
20260902034529 81 313 2.0 5.0 0.00 0.00 0.00 82 1012.0
20260902033026 81 310 3.0 6.0 0.00 0.00 0.00 81 1012.2
20260902031526 82 308 2.0 5.0 0.00 0.00 0.00 81 1012.2
20260902030025 82 311 2.0 4.0 0.00 0.00 0.00 80 1012.4
20260902024524 83 318 1.0 4.0 0.00 0.00 0.00 80 1012.3
20260902023036 83 320 2.0 7.0 0.00 0.00 0.00 79 1012.2
20260902021531 83 319 1.0 5.0 0.00 0.00 0.00 79 1012.2
20260902020021 83 314 2.0 3.0 0.00 0.00 0.00 79 1012.1
20260902014520 84 318 1.0 4.0 0.00 0.00 0.00 78 1012.0
20260902013018 84 324 0.0 4.0 0.00 0.00 0.00 78 1011.9
20260902011517 85 317 0.0 4.0 0.00 0.00 0.00 77 1011.6
20260902010016 86 319 1.0 3.0 0.00 0.00 0.00 75 1011.3
20260902004518 86 319 1.0 2.0 0.00 0.00 0.00 74 1011.3
20260902003012 87 319 1.0 3.0 0.00 0.00 0.00 73 1011.2
20260902001511 88 327 1.0 4.0 0.00 0.00 0.00 72 1011.2
20260902000012 88 339 3.0 5.0 0.00 0.00 0.00 71 1011.2
20260901234509 89 325 3.0 6.0 0.00 0.00 0.00 70 1011.3
20260901233005 90 319 3.0 7.0 0.00 0.00 0.00 70 1011.3
20260901231505 90 333 4.0 7.0 0.00 0.00 0.00 70 1011.5
20260901230004 90 17 3.0 9.0 0.00 0.00 0.00 69 1011.4
20260901224505 91 320 3.0 10.0 0.00 0.00 0.00 69 1011.5
20260901223004 91 339 3.0 9.0 0.00 0.00 0.00 68 1011.5
20260901221502 91 352 3.0 9.0 0.00 0.00 0.00 67 1011.6
20260901220053 92 314 4.0 9.0 0.00 0.00 0.00 67 1011.4
20260901214528 91 350 2.0 7.0 0.00 0.00 0.00 69 1011.4
20260901213056 91 25 2.0 6.0 0.00 0.00 0.00 66 1011.5
20260901211522 92 329 2.0 7.0 0.00 0.00 0.00 64 1011.5
20260901210020 92 12 4.0 9.0 0.00 0.00 0.00 62 1011.7
20260901204521 92 359 5.0 10.0 0.00 0.00 0.00 62 1011.8
20260901203058 92 353 2.0 9.0 0.00 0.00 0.00 62 1011.8
20260901201544 92 33 4.0 8.0 0.00 0.00 0.00 61 1011.9
20260901200044 92 27 3.0 8.0 0.00 0.00 0.00 61 1012.0
20260901194543 92 351 3.0 8.0 0.00 0.00 0.00 60 1012.1
20260901193049 92 30 4.0 10.0 0.00 0.00 0.00 62 1012.3
20260901191538 91 348 3.0 11.0 0.00 0.00 0.00 64 1012.2
20260901190029 91 308 5.0 8.0 0.00 0.00 0.00 65 1012.2
20260901184531 90 287 3.0 8.0 0.00 0.00 0.00 67 1012.3
20260901183036 89 316 3.0 8.0 0.00 0.00 0.00 68 1012.4
20260901181522 88 358 5.0 10.0 0.00 0.00 0.00 73 1012.5
20260901180017 87 335 4.0 10.0 0.00 0.00 0.00 73 1012.5
20260901174512 87 17 4.0 8.0 0.00 0.00 0.00 77 1012.8
20260901173008 86 331 2.0 7.0 0.00 0.00 0.00 78 1012.9
20260901171506 85 327 4.0 7.0 0.00 0.00 0.00 79 1013.0
20260901170002 84 345 2.0 6.0 0.00 0.00 0.00 83 1013.1
20260901164611 83 323 2.0 6.0 0.00 0.00 0.00 85 1013.3